Year,Month,Day,Hour,Minute,Value (Times are PST for temperature in C)
2022,01,01,00,00,-6.90
2022,01,01,00,01,-6.80
2022,01,01,00,02,-6.80
2022,01,01,00,03,-6.80
2022,01,01,00,04,-6.80
2022,01,01,00,05,-6.80
2022,01,01,00,06,-6.80
2022,01,01,00,07,-6.80
2022,01,01,00,08,-6.70
2022,01,01,00,09,-6.70
2022,01,01,00,10,-6.70
2022,01,01,00,11,-6.60
2022,01,01,00,12,-6.60
2022,01,01,00,13,-6.60
2022,01,01,00,14,-6.60
2022,01,01,00,15,-6.60
2022,01,01,00,16,-6.60
2022,01,01,00,17,-6.60
2022,01,01,00,18,-6.60
2022,01,01,00,19,-6.60
2022,01,01,00,20,-6.60
2022,01,01,00,21,-6.60
2022,01,01,00,22,-6.60
2022,01,01,00,23,-6.60
2022,01,01,00,24,-6.60
2022,01,01,00,25,-6.60
2022,01,01,00,26,-6.60
2022,01,01,00,27,-6.50
2022,01,01,00,28,-6.50
2022,01,01,00,29,-6.50
2022,01,01,00,30,-6.40
2022,01,01,00,31,-6.40
2022,01,01,00,32,-6.50
2022,01,01,00,33,-6.40
2022,01,01,00,34,-6.40
2022,01,01,00,35,-6.40
2022,01,01,00,36,-6.40
2022,01,01,00,37,-6.40
2022,01,01,00,38,-6.40
2022,01,01,00,39,-6.40
2022,01,01,00,40,-6.30
2022,01,01,00,41,-6.30
2022,01,01,00,42,-6.30
2022,01,01,00,43,-6.30
2022,01,01,00,44,-6.30
2022,01,01,00,45,-6.30
2022,01,01,00,46,-6.30
2022,01,01,00,47,-6.30
2022,01,01,00,48,-6.30
2022,01,01,00,49,-6.30
2022,01,01,00,50,-6.30
2022,01,01,00,51,-6.30
2022,01,01,00,52,-6.30
2022,01,01,00,53,-6.30
2022,01,01,00,54,-6.20
2022,01,01,00,55,-6.20
2022,01,01,00,56,-6.20
2022,01,01,00,57,-6.20
2022,01,01,00,58,-6.20
2022,01,01,00,59,-6.10
2022,01,01,01,00,-6.10
2022,01,01,01,01,-6.10
2022,01,01,01,02,-6.10
2022,01,01,01,03,-6.10
2022,01,01,01,04,-6.10
2022,01,01,01,05,-6.00
2022,01,01,01,06,-6.00
2022,01,01,01,07,-6.00
2022,01,01,01,08,-6.00
2022,01,01,01,09,-6.00
2022,01,01,01,10,-6.00
2022,01,01,01,11,-6.00
2022,01,01,01,12,-6.00
2022,01,01,01,13,-6.00
2022,01,01,01,14,-6.00
2022,01,01,01,15,-6.00
2022,01,01,01,16,-6.00
2022,01,01,01,17,-6.00
2022,01,01,01,18,-6.00
2022,01,01,01,19,-6.00
2022,01,01,01,20,-6.00
2022,01,01,01,21,-6.00
2022,01,01,01,22,-5.90
2022,01,01,01,23,-5.90
2022,01,01,01,24,-5.90
2022,01,01,01,25,-5.90
2022,01,01,01,26,-5.90
2022,01,01,01,27,-5.90
2022,01,01,01,28,-5.90
2022,01,01,01,29,-5.90
2022,01,01,01,30,-5.90
2022,01,01,01,31,-5.80
2022,01,01,01,32,-5.80
2022,01,01,01,33,-5.80
2022,01,01,01,34,-5.80
2022,01,01,01,35,-5.70
2022,01,01,01,36,-5.70
2022,01,01,01,37,-5.70
2022,01,01,01,38,-5.70
2022,01,01,01,39,-5.70
2022,01,01,01,40,-5.70
2022,01,01,01,41,-5.70
2022,01,01,01,42,-5.70
2022,01,01,01,43,-5.70
2022,01,01,01,44,-5.70
2022,01,01,01,45,-5.70
2022,01,01,01,46,-5.70
2022,01,01,01,47,-5.70
2022,01,01,01,48,-5.70
2022,01,01,01,49,-5.70
2022,01,01,01,50,-5.60
2022,01,01,01,51,-5.60
2022,01,01,01,52,-5.60
2022,01,01,01,53,-5.60
2022,01,01,01,54,-5.60
2022,01,01,01,55,-5.60
2022,01,01,01,56,-5.60
2022,01,01,01,57,-5.60
2022,01,01,01,58,-5.60
2022,01,01,01,59,-5.60
2022,01,01,02,00,-5.50
2022,01,01,02,01,-5.50
2022,01,01,02,02,-5.50
2022,01,01,02,03,-5.50
2022,01,01,02,04,-5.50
2022,01,01,02,05,-5.50
2022,01,01,02,06,-5.50
2022,01,01,02,07,-5.50
2022,01,01,02,08,-5.50
2022,01,01,02,09,-5.50
2022,01,01,02,10,-5.50
2022,01,01,02,11,-5.40
2022,01,01,02,12,-5.40
2022,01,01,02,13,-5.40
2022,01,01,02,14,-5.40
2022,01,01,02,15,-5.30
2022,01,01,02,16,-5.30
2022,01,01,02,17,-5.30
2022,01,01,02,18,-5.30
2022,01,01,02,19,-5.30
2022,01,01,02,20,-5.30
2022,01,01,02,21,-5.30
2022,01,01,02,22,-5.30
2022,01,01,02,23,-5.30
2022,01,01,02,24,-5.30
2022,01,01,02,25,-5.30
2022,01,01,02,26,-5.30
2022,01,01,02,27,-5.30
2022,01,01,02,28,-5.30
2022,01,01,02,29,-5.30
2022,01,01,02,30,-5.30
2022,01,01,02,31,-5.30
2022,01,01,02,32,-5.30
2022,01,01,02,33,-5.20
2022,01,01,02,34,-5.20
2022,01,01,02,35,-5.20
2022,01,01,02,36,-5.20
2022,01,01,02,37,-5.20
2022,01,01,02,38,-5.20
2022,01,01,02,39,-5.20
2022,01,01,02,40,-5.20
2022,01,01,02,41,-5.20
2022,01,01,02,42,-5.20
2022,01,01,02,43,-5.20
2022,01,01,02,44,-5.20
2022,01,01,02,45,-5.20
2022,01,01,02,46,-5.20
2022,01,01,02,47,-5.20
2022,01,01,02,48,-5.20
2022,01,01,02,49,-5.20
2022,01,01,02,50,-5.20
2022,01,01,02,51,-5.20
2022,01,01,02,52,-5.20
2022,01,01,02,53,-5.20
2022,01,01,02,54,-5.20
2022,01,01,02,55,-5.20
2022,01,01,02,56,-5.20
2022,01,01,02,57,-5.20
2022,01,01,02,58,-5.20
2022,01,01,02,59,-5.10
2022,01,01,03,00,-5.10
2022,01,01,03,01,-5.10
2022,01,01,03,02,-5.10
2022,01,01,03,03,-5.10
2022,01,01,03,04,-5.10
2022,01,01,03,05,-5.10
2022,01,01,03,06,-5.10
2022,01,01,03,07,-5.00
2022,01,01,03,08,-5.00
2022,01,01,03,09,-5.00
2022,01,01,03,10,-5.00
2022,01,01,03,11,-5.00
2022,01,01,03,12,-4.90
2022,01,01,03,13,-4.90
2022,01,01,03,14,-4.90
2022,01,01,03,15,-4.90
2022,01,01,03,16,-4.90
2022,01,01,03,17,-4.90
2022,01,01,03,18,-4.90
2022,01,01,03,19,-4.90
2022,01,01,03,20,-4.90
2022,01,01,03,21,-4.90
2022,01,01,03,22,-4.90
2022,01,01,03,23,-4.90
2022,01,01,03,24,-4.90
2022,01,01,03,25,-4.90
2022,01,01,03,26,-4.80
2022,01,01,03,27,-4.80
2022,01,01,03,28,-4.80
2022,01,01,03,29,-4.80
2022,01,01,03,30,-4.80
2022,01,01,03,31,-4.80
2022,01,01,03,32,-4.80
2022,01,01,03,33,-4.80
2022,01,01,03,34,-4.70
2022,01,01,03,35,-4.70
2022,01,01,03,36,-4.70
2022,01,01,03,37,-4.70
2022,01,01,03,38,-4.70
2022,01,01,03,39,-4.70
2022,01,01,03,40,-4.70
2022,01,01,03,41,-4.70
2022,01,01,03,42,-4.70
2022,01,01,03,43,-4.70
2022,01,01,03,44,-4.70
2022,01,01,03,45,-4.70
2022,01,01,03,46,-4.70
2022,01,01,03,47,-4.70
2022,01,01,03,48,-4.70
2022,01,01,03,49,-4.70
2022,01,01,03,50,-4.70
2022,01,01,03,51,-4.70
2022,01,01,03,52,-4.70
2022,01,01,03,53,-4.70
2022,01,01,03,54,-4.60
2022,01,01,03,55,-4.60
2022,01,01,03,56,-4.60
2022,01,01,03,57,-4.60
2022,01,01,03,58,-4.60
2022,01,01,03,59,-4.60
2022,01,01,04,00,-4.60
2022,01,01,04,01,-4.60
2022,01,01,04,02,-4.60
2022,01,01,04,03,-4.60
2022,01,01,04,04,-4.60
2022,01,01,04,05,-4.60
2022,01,01,04,06,-4.60
2022,01,01,04,07,-4.60
2022,01,01,04,08,-4.60
2022,01,01,04,09,-4.60
2022,01,01,04,10,-4.60
2022,01,01,04,11,-4.50
2022,01,01,04,12,-4.50
2022,01,01,04,13,-4.50
2022,01,01,04,14,-4.50
2022,01,01,04,15,-4.40
2022,01,01,04,16,-4.40
2022,01,01,04,17,-4.40
2022,01,01,04,18,-4.40
2022,01,01,04,19,-4.40
2022,01,01,04,20,-4.40
2022,01,01,04,21,-4.40
2022,01,01,04,22,-4.40
2022,01,01,04,23,-4.40
2022,01,01,04,24,-4.40
2022,01,01,04,25,-4.40
2022,01,01,04,26,-4.30
2022,01,01,04,27,-4.30
2022,01,01,04,28,-4.30
2022,01,01,04,29,-4.30
2022,01,01,04,30,-4.30
2022,01,01,04,31,-4.30
2022,01,01,04,32,-4.30
2022,01,01,04,33,-4.30
2022,01,01,04,34,-4.30
2022,01,01,04,35,-4.30
2022,01,01,04,36,-4.30
2022,01,01,04,37,-4.30
2022,01,01,04,38,-4.30
2022,01,01,04,39,-4.30
2022,01,01,04,40,-4.30
2022,01,01,04,41,-4.30
2022,01,01,04,42,-4.30
2022,01,01,04,43,-4.30
2022,01,01,04,44,-4.20
2022,01,01,04,45,-4.20
2022,01,01,04,46,-4.20
2022,01,01,04,47,-4.20
2022,01,01,04,48,-4.20
2022,01,01,04,49,-4.20
2022,01,01,04,50,-4.20
2022,01,01,04,51,-4.20
2022,01,01,04,52,-4.30
2022,01,01,04,53,-4.30
2022,01,01,04,54,-4.30
2022,01,01,04,55,-4.30
2022,01,01,04,56,-4.30
2022,01,01,04,57,-4.30
2022,01,01,04,58,-4.20
2022,01,01,04,59,-4.20
2022,01,01,05,00,-4.20
2022,01,01,05,01,-4.20
2022,01,01,05,02,-4.20
2022,01,01,05,03,-4.20
2022,01,01,05,04,-4.20
2022,01,01,05,05,-4.20
2022,01,01,05,06,-4.20
2022,01,01,05,07,-4.20
2022,01,01,05,08,-4.20
2022,01,01,05,09,-4.20
2022,01,01,05,10,-4.20
2022,01,01,05,11,-4.20
2022,01,01,05,12,-4.20
2022,01,01,05,13,-4.20
2022,01,01,05,14,-4.20
2022,01,01,05,15,-4.20
2022,01,01,05,16,-4.20
2022,01,01,05,17,-4.20
2022,01,01,09,14,-3.00
2022,01,01,09,15,-2.90
2022,01,01,09,16,-2.90
2022,01,01,09,17,-2.90
2022,01,01,09,18,-2.90
2022,01,01,09,19,-2.90
2022,01,01,09,20,-2.90
2022,01,01,09,21,-2.90
2022,01,01,09,22,-2.80
2022,01,01,09,23,-2.80
2022,01,01,09,24,-2.80
2022,01,01,09,25,-2.80
2022,01,01,09,26,-2.80
2022,01,01,09,27,-2.80
2022,01,01,09,28,-2.80
2022,01,01,09,29,-2.70
2022,01,01,09,30,-2.70
2022,01,01,09,31,-2.70
2022,01,01,09,32,-2.70
2022,01,01,09,33,-2.60
2022,01,01,09,34,-2.60
2022,01,01,09,35,-2.60
2022,01,01,09,36,-2.50
2022,01,01,09,37,-2.50
2022,01,01,09,38,-2.40
2022,01,01,09,39,-2.40
2022,01,01,09,40,-2.30
2022,01,01,09,41,-2.30
2022,01,01,09,42,-2.30
2022,01,01,09,43,-2.20
2022,01,01,09,44,-2.20
2022,01,01,09,45,-2.20
2022,01,01,09,46,-2.20
2022,01,01,09,47,-2.10
2022,01,01,09,48,-2.10
2022,01,01,09,49,-2.10
2022,01,01,09,50,-2.00
2022,01,01,09,51,-1.90
2022,01,01,09,52,-1.90
2022,01,01,09,53,-1.90
2022,01,01,09,54,-1.80
2022,01,01,09,55,-1.80
2022,01,01,09,56,-1.80
2022,01,01,09,57,-1.70
2022,01,01,09,58,-1.70
2022,01,01,09,59,-1.60
2022,01,01,10,00,-1.50
2022,01,01,10,01,-1.50
2022,01,01,10,02,-1.40
2022,01,01,10,03,-1.30
2022,01,01,10,04,-1.30
2022,01,01,10,05,-1.20
2022,01,01,10,06,-1.20
2022,01,01,10,07,-1.10
2022,01,01,10,08,-1.00
2022,01,01,10,09,-1.00
2022,01,01,10,10,-0.90
2022,01,01,10,11,-0.80
2022,01,01,10,12,-0.80
2022,01,01,10,13,-0.70
2022,01,01,10,14,-0.60
2022,01,01,10,15,-0.60
2022,01,01,10,16,-0.50
2022,01,01,10,17,-0.40
2022,01,01,10,18,-0.40
2022,01,01,10,19,-0.30
2022,01,01,10,20,-0.30
2022,01,01,10,21,-0.20
2022,01,01,10,22,-0.20
2022,01,01,10,23,-0.20
2022,01,01,10,24,-0.10
2022,01,01,10,25,-0.10
2022,01,01,10,26,-0.10
2022,01,01,10,27,-0.10
2022,01,01,10,28,0.00
2022,01,01,10,29,0.00
2022,01,01,10,30,0.00
2022,01,01,10,31,0.00
2022,01,01,10,32,0.10
2022,01,01,10,33,0.10
2022,01,01,10,34,0.10
2022,01,01,10,35,0.10
2022,01,01,10,36,0.10
2022,01,01,10,37,0.10
2022,01,01,10,38,0.10
2022,01,01,10,39,0.10
2022,01,01,10,40,0.10
2022,01,01,10,41,0.20
2022,01,01,10,42,0.20
2022,01,01,10,43,0.20
2022,01,01,10,44,0.20
2022,01,01,10,45,0.20
2022,01,01,10,46,0.20
2022,01,01,10,47,0.30
2022,01,01,10,48,0.30
2022,01,01,10,49,0.30
2022,01,01,10,50,0.30
2022,01,01,10,51,0.30
2022,01,01,10,52,0.30
2022,01,01,10,53,0.30
2022,01,01,10,54,0.40
2022,01,01,10,55,0.40
2022,01,01,10,56,0.40
2022,01,01,10,57,0.40
2022,01,01,10,58,0.40
2022,01,01,10,59,0.40
2022,01,01,11,00,0.40
2022,01,01,11,01,0.40
2022,01,01,11,02,0.40
2022,01,01,11,03,0.40
2022,01,01,11,04,0.40
2022,01,01,11,05,0.40
2022,01,01,11,06,0.40
2022,01,01,11,07,0.50
2022,01,01,11,08,0.50
2022,01,01,11,09,0.50
2022,01,01,11,10,0.50
2022,01,01,11,11,0.50
2022,01,01,11,12,0.50
2022,01,01,11,13,0.50
2022,01,01,11,14,0.60
2022,01,01,11,15,0.60
2022,01,01,11,16,0.60
2022,01,01,11,17,0.60
2022,01,01,11,18,0.50
2022,01,01,11,19,0.60
2022,01,01,11,20,0.60
2022,01,01,11,21,0.60
2022,01,01,11,22,0.60
2022,01,01,11,23,0.60
2022,01,01,11,24,0.60
2022,01,01,11,25,0.70
2022,01,01,11,26,0.70
2022,01,01,11,27,0.70
2022,01,01,11,28,0.70
2022,01,01,11,29,0.70
2022,01,01,11,30,0.70
2022,01,01,11,31,0.70
2022,01,01,11,32,0.70
2022,01,01,11,33,0.70
2022,01,01,11,34,0.70
2022,01,01,11,35,0.70
2022,01,01,11,36,0.70
2022,01,01,11,37,0.70
2022,01,01,11,38,0.80
2022,01,01,11,39,0.80
2022,01,01,11,40,0.80
2022,01,01,11,41,0.80
2022,01,01,11,42,0.80
2022,01,01,11,43,0.80
2022,01,01,11,44,0.80
2022,01,01,11,45,0.80
2022,01,01,11,46,0.80
2022,01,01,11,47,0.80
2022,01,01,11,48,0.80
2022,01,01,11,49,0.80
2022,01,01,11,50,0.80
2022,01,01,11,51,0.80
2022,01,01,11,52,0.80
2022,01,01,11,53,0.80
2022,01,01,11,54,0.80
2022,01,01,11,55,0.80
2022,01,01,11,56,0.80
2022,01,01,11,57,0.80
2022,01,01,11,58,0.80
2022,01,01,11,59,0.90
2022,01,01,12,00,0.90
2022,01,01,12,01,0.90
2022,01,01,12,02,0.90
2022,01,01,12,03,0.90
2022,01,01,12,04,0.90
2022,01,01,12,05,0.90
2022,01,01,12,06,0.80
2022,01,01,12,07,0.80
2022,01,01,12,08,0.80
2022,01,01,12,09,0.80
2022,01,01,12,10,0.90
2022,01,01,12,11,0.90
2022,01,01,12,12,0.90
2022,01,01,12,13,0.90
2022,01,01,12,14,0.90
2022,01,01,12,15,0.90
2022,01,01,12,16,0.90
2022,01,01,12,17,0.80
2022,01,01,12,18,0.80
2022,01,01,12,19,0.80
2022,01,01,12,20,0.80
2022,01,01,12,21,0.80
2022,01,01,12,22,0.90
2022,01,01,12,23,0.90
2022,01,01,12,24,0.90
2022,01,01,12,25,0.90
2022,01,01,12,26,0.90
2022,01,01,12,27,0.90
2022,01,01,12,28,0.90
2022,01,01,12,29,0.90
2022,01,01,12,30,0.90
2022,01,01,12,31,0.90
2022,01,01,12,32,1.00
2022,01,01,12,33,1.00
2022,01,01,12,34,1.00
2022,01,01,12,35,1.00
2022,01,01,12,36,1.10
2022,01,01,12,37,1.10
2022,01,01,12,38,1.10
2022,01,01,12,39,1.10
2022,01,01,12,40,1.10
2022,01,01,12,41,1.10
2022,01,01,12,42,1.10
2022,01,01,12,43,1.10
2022,01,01,12,44,1.10
2022,01,01,12,45,1.10
2022,01,01,12,46,1.20
2022,01,01,12,47,1.20
2022,01,01,12,48,1.20
2022,01,01,12,49,1.20
2022,01,01,12,50,1.20
2022,01,01,12,51,1.20
2022,01,01,12,52,1.20
2022,01,01,12,53,1.20
2022,01,01,12,54,1.20
2022,01,01,12,55,1.20
2022,01,01,12,56,1.20
2022,01,01,12,57,1.20
2022,01,01,12,58,1.20
2022,01,01,12,59,1.20
2022,01,01,13,00,1.20
2022,01,01,13,01,1.20
2022,01,01,13,02,1.20
2022,01,01,13,03,1.20
2022,01,01,13,04,1.20
2022,01,01,13,05,1.30
2022,01,01,13,06,1.30
2022,01,01,13,07,1.30
2022,01,01,13,08,1.30
2022,01,01,13,09,1.30
2022,01,01,13,10,1.30
2022,01,01,13,11,1.30
2022,01,01,13,12,1.30
2022,01,01,13,13,1.30
2022,01,01,13,14,1.30
2022,01,01,13,15,1.30
2022,01,01,13,16,1.30
2022,01,01,13,17,1.30
2022,01,01,13,18,1.30
2022,01,01,13,19,1.30
2022,01,01,13,20,1.30
2022,01,01,13,21,1.30
2022,01,01,13,22,1.30
2022,01,01,13,23,1.40
2022,01,01,13,24,1.40
2022,01,01,13,25,1.40
2022,01,01,13,26,1.40
2022,01,01,13,27,1.40
2022,01,01,13,28,1.40
2022,01,01,13,29,1.40
2022,01,01,13,30,1.40
2022,01,01,13,31,1.50
2022,01,01,13,32,1.50
2022,01,01,13,33,1.50
2022,01,01,13,34,1.50
2022,01,01,13,35,1.50
2022,01,01,13,36,1.50
2022,01,01,13,37,1.50
2022,01,01,13,38,1.50
2022,01,01,13,39,1.60
2022,01,01,13,40,1.60
2022,01,01,13,41,1.60
2022,01,01,13,42,1.60
2022,01,01,13,43,1.60
2022,01,01,13,44,1.70
2022,01,01,13,45,1.70
2022,01,01,13,46,1.70
2022,01,01,13,47,1.70
2022,01,01,13,48,1.70
2022,01,01,13,49,1.70
2022,01,01,13,50,1.70
2022,01,01,13,51,1.70
2022,01,01,13,52,1.70
2022,01,01,13,53,1.70
2022,01,01,13,54,1.70
2022,01,01,13,55,1.70
2022,01,01,13,56,1.60
2022,01,01,13,57,1.60
2022,01,01,13,58,1.60
2022,01,01,13,59,1.60
2022,01,01,14,00,1.60
2022,01,01,14,01,1.60
2022,01,01,14,02,1.60
2022,01,01,14,03,1.60
2022,01,01,14,04,1.60
2022,01,01,14,05,1.70
2022,01,01,14,06,1.70
2022,01,01,14,07,1.70
2022,01,01,14,08,1.70
2022,01,01,14,09,1.70
2022,01,01,14,10,1.70
2022,01,01,14,11,1.70
2022,01,01,14,12,1.70
2022,01,01,14,13,1.70
2022,01,01,14,14,1.70
2022,01,01,14,15,1.70
2022,01,01,14,16,1.70
2022,01,01,14,17,1.70
2022,01,01,14,18,1.70
2022,01,01,14,19,1.70
2022,01,01,14,20,1.70
2022,01,01,14,21,1.70
2022,01,01,14,22,1.70
2022,01,01,14,23,1.70
2022,01,01,14,24,1.70
2022,01,01,14,25,1.70
2022,01,01,14,26,1.70
2022,01,01,14,27,1.70
2022,01,01,14,28,1.70
2022,01,01,14,29,1.70
2022,01,01,14,30,1.70
2022,01,01,14,31,1.70
2022,01,01,14,32,1.70
2022,01,01,14,33,1.70
2022,01,01,14,34,1.70
2022,01,01,14,35,1.70
2022,01,01,14,36,1.80
2022,01,01,14,37,1.80
2022,01,01,14,38,1.80
2022,01,01,14,39,1.80
2022,01,01,14,40,1.80
2022,01,01,14,41,1.80
2022,01,01,14,42,1.80
2022,01,01,14,43,1.80
2022,01,01,14,44,1.80
2022,01,01,14,45,1.80
2022,01,01,14,46,1.80
2022,01,01,14,47,1.80
2022,01,01,14,48,1.90
2022,01,01,14,49,1.90
2022,01,01,14,50,1.90
2022,01,01,14,51,1.90
2022,01,01,14,52,1.90
2022,01,01,14,53,1.90
2022,01,01,14,54,1.90
2022,01,01,14,55,1.90
2022,01,01,14,56,1.90
2022,01,01,14,57,1.90
2022,01,01,14,58,1.90
2022,01,01,14,59,1.90
2022,01,01,15,00,1.90
2022,01,01,15,01,1.90
2022,01,01,15,02,1.90
2022,01,01,15,03,1.90
2022,01,01,15,04,1.90
2022,01,01,15,05,1.90
2022,01,01,15,06,1.90
2022,01,01,15,07,1.90
2022,01,01,15,08,1.90
2022,01,01,15,09,1.90
2022,01,01,15,10,1.90
2022,01,01,15,11,1.90
2022,01,01,15,12,1.90
2022,01,01,15,13,2.00
2022,01,01,15,14,2.00
2022,01,01,15,15,2.00
2022,01,01,15,16,1.90
2022,01,01,15,17,1.90
2022,01,01,15,18,1.90
2022,01,01,15,19,1.90
2022,01,01,15,20,1.90
2022,01,01,15,21,1.90
2022,01,01,15,22,1.90
2022,01,01,15,23,1.90
2022,01,01,15,24,1.90
2022,01,01,15,25,1.90
2022,01,01,15,26,2.00
2022,01,01,15,27,2.00
2022,01,01,15,28,2.00
2022,01,01,15,29,2.00
2022,01,01,15,30,2.00
2022,01,01,15,31,2.00
2022,01,01,15,32,2.00
2022,01,01,15,33,2.00
2022,01,01,15,34,2.00
2022,01,01,15,35,2.00
2022,01,01,15,36,2.00
2022,01,01,15,37,2.00
2022,01,01,15,38,2.00
2022,01,01,15,39,2.00
2022,01,01,15,40,2.00
2022,01,01,15,41,2.00
2022,01,01,15,42,2.00
2022,01,01,15,43,1.90
2022,01,01,15,44,1.90
2022,01,01,15,45,1.90
2022,01,01,15,46,1.90
2022,01,01,15,47,1.90
2022,01,01,15,48,1.90
2022,01,01,15,49,1.90
2022,01,01,15,50,1.90
2022,01,01,15,51,1.90
2022,01,01,15,52,1.80
2022,01,01,15,53,1.80
2022,01,01,15,54,1.80
2022,01,01,15,55,1.80
2022,01,01,15,56,1.80
2022,01,01,15,57,1.80
2022,01,01,15,58,1.80
2022,01,01,15,59,1.80
2022,01,01,16,00,1.80
2022,01,01,16,01,1.80
2022,01,01,16,02,1.80
2022,01,01,16,03,1.80
2022,01,01,16,04,1.80
2022,01,01,16,05,1.80
2022,01,01,16,06,1.90
2022,01,01,16,07,1.90
2022,01,01,16,08,1.90
2022,01,01,16,09,1.90
2022,01,01,16,10,1.90
2022,01,01,16,11,1.90
2022,01,01,16,12,1.80
2022,01,01,16,13,1.80
2022,01,01,16,14,1.80
2022,01,01,16,15,1.80
2022,01,01,16,16,1.80
2022,01,01,16,17,1.80
2022,01,01,16,18,1.70
2022,01,01,16,19,1.70
2022,01,01,16,20,1.70
2022,01,01,16,21,1.70
2022,01,01,16,22,1.70
2022,01,01,16,23,1.70
2022,01,01,16,24,1.70
2022,01,01,16,25,1.70
2022,01,01,16,26,1.70
2022,01,01,16,27,1.70
2022,01,01,16,28,1.70
2022,01,01,16,29,1.80
2022,01,01,16,30,1.80
2022,01,01,16,31,1.80
2022,01,01,16,32,1.80
2022,01,01,16,33,1.80
2022,01,01,16,34,1.90
2022,01,01,16,35,1.90
2022,01,01,16,36,1.90
2022,01,01,16,37,2.00
2022,01,01,16,38,2.00
2022,01,01,16,39,2.10
2022,01,01,16,40,2.10
2022,01,01,16,41,2.10
2022,01,01,16,42,2.10
2022,01,01,16,43,2.10
2022,01,01,16,44,2.10
2022,01,01,16,45,2.10
2022,01,01,16,46,2.10
2022,01,01,16,47,2.10
2022,01,01,16,48,2.10
2022,01,01,16,49,2.10
2022,01,01,16,50,2.00
2022,01,01,16,51,2.00
2022,01,01,16,52,2.00
2022,01,01,16,53,2.00
2022,01,01,16,54,1.90
2022,01,01,16,55,1.90
2022,01,01,16,56,1.90
2022,01,01,16,57,1.90
2022,01,01,16,58,1.90
2022,01,01,16,59,1.90
2022,01,01,17,00,1.90
2022,01,01,17,01,1.90
2022,01,01,17,02,2.00
2022,01,01,17,03,2.10
2022,01,01,17,04,2.10
2022,01,01,17,05,2.10
2022,01,01,17,06,2.20
2022,01,01,17,07,2.20
2022,01,01,17,08,2.20
2022,01,01,17,09,2.20
2022,01,01,17,10,2.20
2022,01,01,17,11,2.20
2022,01,01,17,12,2.20
2022,01,01,17,13,2.20
2022,01,01,17,14,2.20
2022,01,01,17,15,2.20
2022,01,01,17,16,2.20
2022,01,01,17,17,2.20
2022,01,01,17,18,2.30
2022,01,01,17,19,2.30
2022,01,01,17,20,2.30
2022,01,01,17,21,2.40
2022,01,01,17,22,2.40
2022,01,01,17,23,2.40
2022,01,01,17,24,2.40
2022,01,01,17,25,2.50
2022,01,01,17,26,2.60
2022,01,01,17,27,2.60
2022,01,01,17,28,2.60
2022,01,01,17,29,2.60
2022,01,01,17,30,2.60
2022,01,01,17,31,2.60
2022,01,01,17,32,2.60
2022,01,01,17,33,2.70
2022,01,01,17,34,2.70
2022,01,01,17,35,2.60
2022,01,01,17,36,2.70
2022,01,01,17,37,2.70
2022,01,01,17,38,2.70
2022,01,01,17,39,2.70
2022,01,01,17,40,2.70
2022,01,01,17,41,2.70
2022,01,01,17,42,2.70
2022,01,01,17,43,2.70
2022,01,01,17,44,2.70
2022,01,01,17,45,2.70
2022,01,01,17,46,2.70
2022,01,01,17,47,2.70
2022,01,01,17,48,2.70
2022,01,01,17,49,2.70
2022,01,01,17,50,2.70
2022,01,01,17,51,2.70
2022,01,01,17,52,2.70
2022,01,01,17,53,2.70
2022,01,01,17,54,2.70
2022,01,01,17,55,2.80
2022,01,01,17,56,2.80
2022,01,01,17,57,2.80
2022,01,01,17,58,2.80
2022,01,01,17,59,2.70
2022,01,01,18,00,2.70
2022,01,01,18,01,2.80
2022,01,01,18,02,2.80
2022,01,01,18,03,2.80
2022,01,01,18,04,2.80
2022,01,01,18,05,2.80
2022,01,01,18,06,2.90
2022,01,01,18,07,2.90
2022,01,01,18,08,2.90
2022,01,01,18,09,2.90
2022,01,01,18,10,2.90
2022,01,01,18,11,2.90
2022,01,01,18,12,2.90
2022,01,01,18,13,2.90
2022,01,01,18,14,3.00
2022,01,01,18,15,2.90
2022,01,01,18,16,2.90
2022,01,01,18,17,3.00
2022,01,01,18,18,3.00
2022,01,01,18,19,3.00
2022,01,01,18,20,3.00
2022,01,01,18,21,3.10
2022,01,01,18,22,3.10
2022,01,01,18,23,3.10
2022,01,01,18,24,3.20
2022,01,01,18,25,3.20
2022,01,01,18,26,3.20
2022,01,01,18,27,3.20
2022,01,01,18,28,3.20
2022,01,01,18,29,3.20
2022,01,01,18,30,3.20
2022,01,01,18,31,3.20
2022,01,01,18,32,3.20
2022,01,01,18,33,3.20
2022,01,01,18,34,3.20
2022,01,01,18,35,3.20
2022,01,01,18,36,3.20
2022,01,01,18,37,3.20
2022,01,01,18,38,3.20
2022,01,01,18,39,3.20
2022,01,01,18,40,3.20
2022,01,01,18,41,3.20
2022,01,01,18,42,3.20
2022,01,01,18,43,3.30
2022,01,01,18,44,3.30
2022,01,01,18,45,3.30
2022,01,01,18,46,3.30
2022,01,01,18,47,3.30
2022,01,01,18,48,3.30
2022,01,01,18,49,3.30
2022,01,01,18,50,3.30
2022,01,01,18,51,3.30
2022,01,01,18,52,3.30
2022,01,01,18,53,3.30
2022,01,01,18,54,3.30
2022,01,01,18,55,3.20
2022,01,01,18,56,3.20
2022,01,01,18,57,3.20
2022,01,01,18,58,3.20
2022,01,01,18,59,3.30
2022,01,01,19,00,3.30
2022,01,01,19,01,3.30
2022,01,01,19,02,3.30
2022,01,01,19,03,3.30
2022,01,01,19,04,3.30
2022,01,01,19,05,3.30
2022,01,01,19,06,3.30
2022,01,01,19,07,3.40
2022,01,01,19,08,3.30
2022,01,01,19,09,3.30
2022,01,01,19,10,3.30
2022,01,01,19,11,3.30
2022,01,01,19,12,3.30
2022,01,01,19,13,3.30
2022,01,01,19,14,3.30
2022,01,01,19,15,3.30
2022,01,01,19,16,3.30
2022,01,01,19,17,3.30
2022,01,01,19,18,3.30
2022,01,01,19,19,3.30
2022,01,01,19,20,3.40
2022,01,01,19,21,3.40
2022,01,01,19,22,3.50
2022,01,01,19,23,3.40
2022,01,01,19,24,3.40
2022,01,01,19,25,3.40
2022,01,01,19,26,3.40
2022,01,01,19,27,3.40
2022,01,01,19,28,3.40
2022,01,01,19,29,3.50
2022,01,01,19,30,3.50
2022,01,01,19,31,3.50
2022,01,01,19,32,3.40
2022,01,01,19,33,3.40
2022,01,01,19,34,3.40
2022,01,01,19,35,3.40
2022,01,01,19,36,3.40
2022,01,01,19,37,3.40
2022,01,01,19,38,3.40
2022,01,01,19,39,3.40
2022,01,01,19,40,3.40
2022,01,01,19,41,3.40
2022,01,01,19,42,3.40
2022,01,01,19,43,3.40
2022,01,01,19,44,3.40
2022,01,01,19,45,3.40
2022,01,01,19,46,3.40
2022,01,01,19,47,3.40
2022,01,01,19,48,3.40
2022,01,01,19,49,3.40
2022,01,01,19,50,3.40
2022,01,01,19,51,3.40
2022,01,01,19,52,3.40
2022,01,01,19,53,3.40
2022,01,01,19,54,3.40
2022,01,01,19,55,3.40
2022,01,01,19,56,3.40
2022,01,01,19,57,3.40
2022,01,01,19,58,3.40
2022,01,01,19,59,3.40
2022,01,01,20,00,3.40
2022,01,01,20,01,3.40
2022,01,01,20,02,3.40
2022,01,01,20,03,3.50
2022,01,01,20,04,3.50
2022,01,01,20,05,3.50
2022,01,01,20,06,3.50
2022,01,01,20,07,3.50
2022,01,01,20,08,3.40
2022,01,01,20,09,3.50
2022,01,01,20,10,3.50
2022,01,01,20,11,3.50
2022,01,01,20,12,3.50
2022,01,01,20,13,3.50
2022,01,01,20,14,3.40
2022,01,01,20,15,3.50
2022,01,01,20,16,3.50
2022,01,01,20,17,3.50
2022,01,01,20,18,3.60
2022,01,01,20,19,3.60
2022,01,01,20,20,3.60
2022,01,01,20,21,3.60
2022,01,01,20,22,3.70
2022,01,01,20,23,3.60
2022,01,01,20,24,3.60
2022,01,01,20,25,3.60
2022,01,01,20,26,3.60
2022,01,01,20,27,3.50
2022,01,01,20,28,3.50
2022,01,01,20,29,3.50
2022,01,01,20,30,3.50
2022,01,01,20,31,3.60
2022,01,01,20,32,3.60
2022,01,01,20,33,3.60
2022,01,01,20,34,3.60
2022,01,01,20,35,3.60
2022,01,01,20,36,3.60
2022,01,01,20,37,3.60
2022,01,01,20,38,3.60
2022,01,01,20,39,3.60
2022,01,01,20,40,3.60
2022,01,01,20,41,3.60
2022,01,01,20,42,3.60
2022,01,01,20,43,3.60
2022,01,01,20,44,3.60
2022,01,01,20,45,3.60
2022,01,01,20,46,3.60
2022,01,01,20,47,3.60
2022,01,01,20,48,3.70
2022,01,01,20,49,3.70
2022,01,01,20,50,3.70
2022,01,01,20,51,3.70
2022,01,01,20,52,3.70
2022,01,01,20,53,3.60
2022,01,01,20,54,3.60
2022,01,01,20,55,3.60
2022,01,01,20,56,3.70
2022,01,01,20,57,3.70
2022,01,01,20,58,3.70
2022,01,01,20,59,3.70
2022,01,01,21,00,3.70
2022,01,01,21,01,3.70
2022,01,01,21,02,3.70
2022,01,01,21,03,3.70
2022,01,01,21,04,3.70
2022,01,01,21,05,3.70
2022,01,01,21,06,3.70
2022,01,01,21,07,3.70
2022,01,01,21,08,3.70
2022,01,01,21,09,3.70
2022,01,01,21,10,3.70
2022,01,01,21,11,3.70
2022,01,01,21,12,3.70
2022,01,01,21,13,3.70
2022,01,01,21,14,3.70
2022,01,01,21,15,3.70
2022,01,01,21,16,3.80
2022,01,01,21,17,3.80
2022,01,01,21,18,3.80
2022,01,01,21,19,3.80
2022,01,01,21,20,3.80
2022,01,01,21,21,3.80
2022,01,01,21,22,3.80
2022,01,01,21,23,3.80
2022,01,01,21,24,3.80
2022,01,01,21,25,3.80
2022,01,01,21,26,3.80
2022,01,01,21,27,3.80
2022,01,01,21,28,3.70
2022,01,01,21,29,3.80
2022,01,01,21,30,3.80
2022,01,01,21,31,3.80
2022,01,01,21,32,3.80
2022,01,01,21,33,3.80
2022,01,01,21,34,3.80
2022,01,01,21,35,3.80
2022,01,01,21,36,3.80
2022,01,01,21,37,3.80
2022,01,01,21,38,3.80
2022,01,01,21,39,3.90
2022,01,01,21,40,3.90
2022,01,01,21,41,3.90
2022,01,01,21,42,3.90
2022,01,01,21,43,3.90
2022,01,01,21,44,3.90